EHI
0 0 0 0 0 0 0 0 0 0 0 0 0 0 0 0 0 0 0 0 0 0 0 0 0 0 0 0 0 0 0 0 0 0 0 0 0 0 0 0 0 0 0
0 0 0 0 0 0 0 0 0 0 0 0 0 0 0 0 0 0 0 0 0 0 0 0 0 0 0 0 0 0 0 0 0 0 0 0 0 0 0 0 0 0 0
0 0 0 0 0 0 0 0 0 0 0 0 0 0 0 0 0 0 0 0 0 0 0 0 0 0 0 0 0 0 0 0 0 0 0 0 0 0 0 0 0 0 0
0 0 0 0 0 0 0 0 0 0 0 0 0 0 0 0 0 0 0 0 0 0 0 0 0 0 0 0 0 0 0 0 0 0 0 0 0 0 0 0 0 0 0
0 0 0 0 0 0 0 0 0 0 0 0 0 0 0 0 0 0 0 0 0 0 0 0 0 0 0 0 0 0 0 0 0 0 0 0 0 0 0 0 0 0 0
0 0 0 0 0 0 0 0 0 0 0 0 0 0 0 0 0 0 0 0 0 0 0 0 0 0 0 0 0 0 0 0 0 0 0 0 0 0 0 0 0 0 0
0 0 0 0 0 0 0 0 0 0 0 0 0 0 0 0 0 0 0 0 0 0 0 0 0 0 0 0 0 0 0 0 0 0 0 0 0 0 0 0 0 0 0
0 0 0 0 0 0 0 0 0 0 0 0 0 0 0 0 0 0 0 0 0 0 0 0 0 0 0 0 0 0 0 0 0 0 0 0 0 0 0 0 0 0 0
0 0 0 0 0 0 0 0 0 0 0 0 0 0 0 0 0 0 0 0 0 0 0 0 0 0 0 0 0 0 0 0 0 0 0 0 0 0 0 0 0 0 0
0 0 0 0 0 0 0 0 0 0 0 0 0 0 0 0 0 0 0 0 0 0 0 0 0 0 0 0 0 0 0 0 0 0 0 0 0 0 0 0 0 0 0
0 0 0 0 0 0 0 0 0 0 0 0 0 0 0 0 0 0 0 0 0 0 0 0 0 0 0 0 0 0 0 0 0 0 0 0 0 0 0 0 0 0 0
0 0 0 0 0 0 0 0 0 0 0 0 0 0 0 0 0 0 0 0 0 0 0 0 0 0 0 0 0 0 0 0 0 0 0 0 0 0 0 0 0 0 0
0 0 0 0 0 0 0 0 0 0 0 0 0 0 0 0 0 0 0 0 0 0 0 0 0 0 0 0 0 0 0 0 0 0 0 0 0 0 0 0 0 0 0
0 0 0 0 0 0 0 0 0 0 0 0 0 0 0 0 0 0 0 0 0 0 0 0 0 0 0 0 0 0 0 0 0 0 0 0 0 0 0 0 0 0 0
0 0 0 0 0 0 0 0 0 0 0 0 0 0 0 0 0 0 0 0 0 0 0 0 0 0 0 0 0 0 0 0 0 0 0 0 0 0 0 0 0 0 0
0 0 0 0 0 0 0 0 0 0 0 0 0 0 0 0 0 0 0 0 0 0 0 0 0 0 0 0 0 0 0 0 0 0 0 0 0 0 0 0 0 0 0
0 0 0 0 0 0 0 0 0 0 0 0 0 0 0 0 0 0 0 0 0 0 0 0 0 0 0 0 0 0 0 0 0 0 0 0 0 0 0 0 0 0 0
0 0 0 0 0 0 0 0 0 0 0 0 0 0 0 0 0 0 0 0 0 0 0 0 0 0 0 0 0 0 0 0 0 0 0 0 0 0 0 0 0 0 0
0 0 0 0 0 0 0 0 0 0 0 0 0 0 0 0 0 0 0 0 0 0 0 0 0 0 0 0 0 0 0 0 0 0 0 0 0 0 0 0 0 0 0
0 0 0 0 0 0 0 0 0 0 0 0 0 0 0 0 0 0 0 0 0 0 0 0 0 0 0 0 0 0 0 0 0 0 0 0 0 0 0 0 0 0 0
0 0 0 0 0 0 0 0 0 0 0 0 0 0 0 0 0 0 0 0 0 0 0 0 0 0 0 0 0 0 0 0 0 0 0 0 0 0 0 0 0 0 0
0 0 0 0 0 0 0 0 0 0 0 0 0 0 0 0 0 0 0 0 0 0 0 0 0 0 0 0 0 0 0 0 0 0 0 0 0 0 0 0 0 0 0
0 0 0 0 0 0 0 0 0 0 0 0 0 0 0 0 0 0 0 0 0 0 0 0 0 0 0 0 0 0 0 0 0 0 0 0 0 0 0 0 0 0 0
0 0 0 0 0 0 0 0 0 0 0 0 0 0 0 0 0 0 0 0 0 0 0 0 0 0 0 0 0 0 0 0 0 0 0 0 0 0 0 0 0 0 0
0 0 0 0 0 0 0 0 0 0 0 0 0 0 0 0 0 0 0 0 0 0 0 0 0 0 0 0 0 0 0 0 0 0 0 0 0 0 0 0 0 0 0
0 0 0 0 0 0 0 0 0 0 0 0 0 0 0 0 0 0 0 0 0 0 0 0 0 0 0 0 0 0 0 0 0 0 0 0 0 0 0 0 0 0 0
Wind_Speed
4 3 2 2 4 6 6 6 7 7 6 6 8 8 8 8 6 6 9 10 11 12 9 8 8 8 7 9 10 11 11 10 10 11 13 11 10 9 6 7 8 9 11
3 2 2 4 4 4 5 5 6 7 7 6 5 5 6 5 6 6 7 8 10 11 10 10 9 8 8 9 9 11 8 9 9 10 11 8 7 5 8 6 7 8 10
4 1 3 2 2 3 5 7 6 6 7 7 5 7 5 4 5 6 6 8 10 10 9 10 9 8 8 8 9 9 10 10 10 7 7 7 7 13 6 5 5 8 10
3 1 1 0 1 3 4 5 6 6 6 6 7 9 9 7 7 6 7 9 9 9 9 11 9 8 8 8 9 9 9 10 10 9 6 7 9 8 10 7 5 8 10
3 1 1 1 1 3 4 5 5 5 6 6 7 7 7 6 7 8 9 8 7 8 9 11 8 9 8 9 10 10 9 8 9 10 9 9 9 9 8 14 12 10 7
3 2 0 2 3 4 5 5 6 6 6 6 7 8 8 9 11 11 9 9 7 6 9 11 8 9 8 9 10 9 10 9 10 10 9 9 8 8 7 11 14 14 11
3 0 3 4 5 6 6 6 6 6 6 7 7 8 8 8 10 11 10 11 9 8 10 11 9 8 8 10 10 10 10 11 11 11 10 9 9 9 9 10 12 15 13
1 1 2 3 5 6 6 6 6 6 7 7 8 7 7 7 7 9 10 11 10 10 10 11 11 10 11 12 11 10 10 10 11 13 12 10 9 9 9 9 11 13 12
1 2 3 4 5 6 5 6 7 7 7 8 8 7 7 8 9 9 9 8 10 11 13 13 12 11 11 11 11 9 11 11 11 11 12 10 9 8 8 9 9 11 14
1 2 3 4 4 4 5 6 6 7 8 8 7 11 9 9 9 9 11 11 12 12 13 13 13 12 12 11 10 11 11 13 12 10 12 12 8 8 8 9 9 10 12
1 1 2 3 4 5 5 6 7 8 8 8 8 9 9 10 10 9 11 11 11 13 13 14 14 14 14 12 11 12 13 13 13 12 12 12 11 9 8 9 9 10 11
2 0 2 4 5 6 6 7 7 8 9 9 9 10 10 10 10 11 11 12 12 12 13 14 14 15 15 13 13 14 13 13 13 13 11 10 9 10 9 9 10 10 11
2 1 3 4 5 6 7 7 8 8 9 9 10 10 10 10 11 11 12 12 12 13 14 14 15 15 15 15 14 13 13 12 10 9 8 9 10 10 9 9 9 8 8
1 1 3 4 5 6 6 7 8 8 9 9 9 10 10 11 11 11 11 12 12 12 13 15 16 17 17 16 13 10 8 6 6 7 8 9 10 12 11 9 10 10 8
1 2 3 4 5 6 6 7 8 8 9 9 10 11 11 11 11 11 11 11 12 14 14 15 17 18 16 10 8 7 8 8 8 8 9 10 15 21 17 12 12 12 9
1 2 4 5 6 6 7 7 8 8 8 8 10 11 11 11 11 11 11 12 12 13 14 15 16 19 16 22 24 17 11 11 10 10 11 11 11 18 23 24 22 20 15
2 2 3 4 5 6 6 7 8 8 8 8 9 10 10 11 11 12 12 12 11 11 12 13 15 17 20 28 27 25 13 11 11 11 11 12 14 13 10 17 21 19 23
2 0 2 3 4 5 6 6 7 7 7 8 9 9 10 10 11 10 10 10 8 9 9 11 13 14 20 28 25 22 12 10 11 12 12 12 13 15 15 13 12 12 14
3 2 1 2 4 5 6 6 7 7 7 8 9 9 9 10 10 10 10 8 8 7 8 9 11 13 17 26 23 19 8 10 11 12 14 15 13 25 25 16 14 13 13
3 2 0 2 3 5 5 6 7 7 8 9 9 9 9 10 9 10 8 7 7 8 10 10 10 11 12 23 24 18 8 9 9 10 13 20 22 26 26 15 14 15 14
4 3 1 2 3 4 5 5 6 7 8 8 8 9 9 9 8 9 7 7 8 8 8 9 9 9 13 19 24 22 7 9 9 9 9 12 24 25 26 21 15 19 15
4 3 2 2 3 4 4 5 6 7 7 7 8 8 8 8 9 9 8 7 7 6 6 7 7 7 9 14 18 23 20 16 10 9 8 12 23 24 25 19 22 25 18
4 3 2 2 3 4 4 4 6 6 7 7 7 7 8 7 8 7 7 6 6 4 5 6 6 6 7 9 16 19 20 20 10 8 18 20 22 20 16 23 25 19 12
4 3 2 2 3 4 4 4 6 6 6 6 7 6 6 7 7 6 6 5 6 5 4 5 6 6 6 6 4 4 6 11 10 8 13 18 20 16 17 17 15 12 12
4 4 3 1 2 3 4 5 6 5 5 6 6 6 7 6 6 6 6 7 5 8 7 4 5 6 5 8 13 8 5 4 7 7 6 7 9 10 10 10 10 10 11
5 4 3 1 1 2 3 5 6 5 5 5 6 5 5 5 6 6 7 12 13 16 16 15 12 9 13 15 14 13 13 15 15 8 5 7 8 8 9 9 9 9 10
Wind_Direction
132 140 117 76 45 28 11 0 350 344 349 353 353 348 346 341 340 340 340 343 342 340 336 343 334 336 333 328 328 329 326 327 324 319 315 297 279 281 308 318 317 326 339
141 151 66 48 33 8 347 353 352 349 351 348 337 331 324 319 326 321 327 334 338 337 342 338 332 331 328 324 327 325 327 324 328 320 318 315 309 333 313 304 311 337 338
143 86 47 45 358 342 344 2 350 346 345 341 338 337 321 313 326 325 330 332 331 330 329 329 326 326 327 323 323 321 328 322 318 312 310 314 321 325 302 304 323 337 326
135 92 44 204 323 329 342 350 343 340 339 342 345 344 344 333 328 324 320 321 320 321 326 326 322 323 323 321 320 328 315 315 315 311 290 293 302 301 310 310 316 317 321
152 146 194 188 352 345 344 338 334 332 335 338 337 333 330 320 320 322 321 320 316 316 322 322 320 321 319 317 314 315 313 310 306 306 304 299 294 278 288 301 312 315 307
174 188 119 17 350 343 336 332 332 327 331 334 331 327 324 322 325 328 325 326 321 317 317 321 319 317 316 316 313 312 309 305 302 301 299 300 295 295 294 294 304 306 307
193 215 12 352 339 335 329 328 332 331 333 334 329 324 322 320 321 325 326 326 325 323 317 319 316 315 312 313 312 310 306 303 301 300 297 294 288 288 289 291 296 297 302
177 45 11 350 333 328 329 332 337 337 336 334 328 322 323 323 321 321 323 323 322 318 313 316 312 310 311 313 309 305 303 303 301 297 295 290 284 281 281 284 292 295 295
119 41 7 352 335 330 336 339 341 339 334 330 324 324 324 318 317 316 316 318 318 319 320 315 310 308 308 307 306 302 303 301 297 295 295 289 284 284 280 277 274 279 288
124 36 358 339 329 332 339 342 343 334 326 323 321 336 320 314 314 316 318 318 316 316 314 314 312 309 308 305 303 303 302 300 296 295 295 292 286 284 281 276 270 263 267
156 352 327 326 331 342 346 343 339 333 328 321 315 317 316 315 314 316 316 315 312 313 315 316 314 311 309 306 303 301 300 298 299 299 295 295 294 292 288 283 274 266 259
156 272 327 336 344 349 346 342 335 333 326 320 320 321 318 317 318 317 316 314 313 314 316 316 314 312 311 307 302 300 300 297 298 299 302 307 310 308 302 295 283 271 263
174 301 346 345 345 346 343 338 333 328 324 326 327 324 322 323 322 319 317 317 318 318 318 319 316 315 312 308 303 296 294 294 298 309 322 327 333 331 324 317 314 296 273
184 13 355 344 342 341 337 332 328 326 334 335 329 328 328 326 322 320 319 321 322 322 324 324 324 321 315 308 305 301 302 318 338 347 347 349 359 352 343 341 341 330 310
132 24 1 345 340 338 333 329 325 328 333 332 334 333 330 327 326 325 325 328 332 335 331 332 332 331 328 339 3 21 28 21 11 2 355 356 12 10 5 6 3 355 354
94 24 358 346 340 333 327 326 327 329 331 330 332 332 334 333 332 331 336 338 338 337 338 339 339 342 351 25 43 46 29 20 12 4 358 357 7 17 10 11 15 12 11
106 24 346 330 323 322 323 325 325 325 330 329 330 334 334 334 334 338 342 340 338 338 341 341 345 347 356 27 38 39 29 18 11 6 2 4 3 21 11 6 13 11 12
135 347 324 318 315 321 325 323 325 328 330 331 332 334 334 332 332 337 340 336 333 338 338 340 347 350 357 19 35 32 21 14 9 3 1 7 359 13 22 5 8 11 8
152 178 254 288 318 331 330 331 332 332 335 339 338 335 334 334 335 340 338 334 333 336 339 345 348 352 350 10 31 35 9 11 5 3 4 9 8 12 21 12 6 9 6
142 148 276 339 346 337 337 342 338 339 343 342 338 336 339 336 336 339 335 333 333 343 347 348 349 349 347 6 25 41 22 13 6 4 1 7 16 13 19 17 7 11 4
144 133 87 25 346 336 348 350 342 341 335 335 336 340 341 335 341 337 332 335 340 340 340 345 345 346 355 3 18 31 41 22 8 5 1 4 14 15 17 20 15 14 10
146 137 97 30 351 351 359 350 339 324 326 334 339 339 338 340 349 333 331 333 335 332 334 340 345 344 343 357 13 23 29 34 16 1 359 7 17 16 16 18 17 15 12
161 149 114 52 4 355 360 345 321 319 328 335 335 331 334 336 337 329 329 333 336 332 339 342 343 340 341 341 8 20 23 26 27 7 15 17 18 15 11 14 17 14 8
165 152 120 68 6 345 346 324 312 320 331 332 328 328 332 335 332 336 340 336 335 336 336 336 331 326 330 324 329 349 12 19 23 11 7 15 15 17 13 13 12 10 10
164 152 136 105 341 334 335 324 317 323 332 328 324 327 336 329 329 333 335 340 326 350 350 323 320 322 316 333 357 9 3 4 18 13 5 7 8 10 9 8 9 9 9
163 156 154 161 309 328 328 320 315 319 329 332 327 317 324 331 333 327 329 344 352 353 353 350 349 339 344 348 353 358 4 7 14 20 2 6 7 8 6 4 4 6 9